STARLINK AZ

Last updated on Jan. 16, 2020, 12:02 a.m. UTC

1 44961U 20001AZ  20015.58334491 -.00032210  00000-0 -14756-3 0  9998
2 44961  53.0005 354.7568 0000880 243.0350 183.3088 15.82628250  1359

Satellite is not in orbit.